SCP
-0 -0 -0 -0 -0 -0 -0 -0 -0 -0 -0 -0 -0 -0 -0 -0 -0 -0 -0 -0 -0 0 0 0 0 0 0 0 0 0 0 0 0 0 0 0 0 0 0 0 0 0 0 0 0 0 0
-0 -0 -0 -0 -0 -0 -0 -0 -0 -0 -0 -0 -0 -0 -0 -0 -0 -0 -0 -0 -0 0 0 0 0 0 0 0 0 0 0 0 0 0 0 0 0 0 0 0 0 -0 -0 -0 0 0 -0
-0 -0 -0 -0 -0 -0 -0 -0 -0 -0 -0 -0 -0 -0 -0 -0 -0 -0 -0 -0 -0 -0 0 0 0 0 0 0 0 0 0 0 0 0 0 0 0 0 0 0 0 0 -0 -0 0 0 0
-0 -0 -0 -0 -0 -0 -0 -0 -0 -0 -0 -0 -0 -0 -0 -0 -0 -0 -0 -0 -0 -0 0 0 0 0 0 0 0 0 0 0 0 0 0 0 0 0 0 0 0 0 0 -0 0 0 0
-0 -0 -0 -0 -0 -0 0 0 -0 -0 -0 -0 -0 -0 -0 -0 -0 -0 -0 -0 0 -0 0 0 0 0 0 0 0 0 0 0 0 0 0 0 0 0 0 0 0 0 0 0 0 0 0
-0 -0 -0 -0 -0 -0 -0 0 -0 -0 -0 -0 -0 -0 -0 -0 -0 -0 -0 0 -0 -0 -0 0 0 0 0 0 0 0 0 0 0 0 0 0 0 0 0 0 0 0 0 0 -0 0 0
-0 -0 -0 -0 -0 -0 -0 -0 -0 -0 -0 -0 -0 -0 -0 -0 -0 -0 -0 -0 -0 -0 -0 0 0 0 0 0 0 0 0 0 0 0 0 0 0 0 0 0 0 0 0 0 -0 0 -0
-0 -0 -0 -0 -0 -0 -0 -0 -0 -0 -0 -0 -0 -0 -0 -0 -0 -0 0 -0 -0 -0 -0 -0 -0 0 0 0 0 0 0 0 0 0 0 0 0 0 0 0 0 0 0 0 -0 0 0
-0 -0 -0 -0 -0 -0 -0 -0 -0 -0 -0 -0 -0 -0 -0 -0 -0 0 0 -0 0 0 0 0 -0 0 0 0 0 0 0 0 0 0 0 0 0 0 0 0 0 0 0 0 0 0 0
-0 -0 -0 -0 -0 -0 -0 -0 -0 -0 -0 -0 -0 -0 -0 -0 0 0 -0 0 0 -0 -0 -0 -0 0 0 0 0 0 0 0 0 0 0 0 0 0 0 0 0 0 0 0 0 0 0
-0 -0 -0 -0 -0 -0 -0 -0 -0 -0 -0 -0 -0 -0 -0 0 0 0 0 -0 -0 -0 -0 -0 -0 0 0 0 0 0 0 0 0 0 0 0 0 0 0 0 0 0 0 0 0 0 0
-0 -0 -0 -0 -0 -0 -0 -0 -0 -0 -0 -0 -0 -0 0 0 0 0 -0 0 -0 0 -0 -0 -0 0 0 0 0 0 0 0 0 0 0 0 0 0 0 0 0 0 0 0 0 0 0
0 -0 -0 -0 -0 -0 -0 -0 -0 -0 -0 -0 -0 -0 -0 0 0 0 0 0 0 0 0 -0 0 0 0 0 0 0 0 0 0 0 0 0 0 0 0 0 0 0 0 0 0 0 0
-0 -0 -0 -0 -0 -0 -0 -0 -0 -0 -0 -0 -0 -0 0 0 0 0 0 0 -0 0 0 0 0 0 0 0 0 0 0 0 0 0 0 0 0 0 0 0 0 0 0 0 0 0 0
0 0 -0 -0 -0 -0 -0 -0 -0 -0 -0 -0 -0 0 0 0 0 0 0 0 0 0 0 0 0 0 0 0 0 0 0 0 0 0 0 0 0 0 0 0 0 0 0 0 0 0 0
0 0 -0 -0 -0 -0 -0 -0 -0 -0 -0 -0 0 0 0 0 0 0 0 0 0 0 0 0 0 0 0 0 0 0 0 0 0 0 0 0 0 0 0 0 0 0 0 0 0 0 0
0 0 0 0 0 0 0 -0 -0 -0 -0 0 0 0 0 0 0 0 0 0 0 0 0 0 0 0 0 0 0 0 0 0 0 0 0 0 0 0 0 -0 0 0 0 0 0 0 0
0 0 0 0 0 0 0 0 0 0 -0 0 0 0 0 0 0 0 0 0 0 0 0 0 0 0 0 0 0 0 0 0 0 0 0 0 0 0 0 0 0 0 0 0 0 0 0
0 0 0 0 0 0 0 0 0 0 0 0 0 0 0 0 0 0 0 0 0 0 0 0 0 0 0 0 0 0 0 0 0 0 0 0 0 0 0 0 0 0 0 0 0 0 0
0 0 0 0 0 0 0 0 0 0 0 0 0 0 0 0 0 0 0 0 0 0 0 0 0 0 0 0 0 0 0 0 0 0 0 0 0 0 0 0 0 0 0 0 0 0 0
0 0 0 0 0 0 0 0 0 0 0 0 0 0 0 0 0 0 0 0 0 0 0 0 0 0 0 0 0 0 0 0 0 0 0 0 0 0 0 0 0 0 0 -0 -0 0 0
0 0 0 0 0 0 0 0 0 0 0 0 0 0 0 0 0 0 0 0 0 0 0 0 0 0 0 0 0 0 0 0 0 0 0 0 0 0 0 0 0 0 0 0 0 -0 0
0 0 0 0 0 0 0 0 0 0 0 0 0 0 0 0 0 0 0 0 0 0 0 0 0 0 0 0 0 0 0 0 0 0 0 0 0 0 0 0 0 0 0 0 -0 0 -0
0 0 0 0 0 0 0 0 0 0 0 0 0 0 0 0 0 0 0 0 0 0 0 0 0 0 0 0 0 0 0 0 0 0 0 0 0 0 0 0 0 0 0 0 0 0 -0
0 0 0 0 0 0 0 0 0 0 0 0 0 0 0 0 0 0 0 0 0 0 0 0 0 0 0 0 0 0 0 0 0 0 0 0 0 0 0 0 0 -0 -0 0 0 0 -0
0 0 0 0 0 0 0 0 0 0 0 0 0 0 0 0 0 0 0 0 0 0 0 0 0 0 0 0 0 0 0 0 0 0 0 0 0 0 0 0 0 -0 -0 0 -0 0 0
0 0 0 0 0 0 0 0 0 0 0 0 0 0 0 0 0 0 0 0 0 0 0 0 0 0 0 0 0 0 0 0 0 0 0 0 -0 0 0 0 -0 0 0 0 0 0 0
0 0 0 0 0 0 0 0 0 0 0 0 0 0 0 0 0 0 0 0 0 0 0 0 0 0 0 0 0 0 0 0 0 0 0 0 0 0 0 0 -0 -0 -0 0 0 0 0
0 0 0 0 0 0 0 0 0 0 0 0 0 0 0 0 0 0 0 0 0 0 0 0 0 0 0 0 0 0 0 0 0 0 0 0 0 0 -0 0 0 0 -0 0 -0 0 0
Wind_Speed_500mb
25 27 26 28 32 37 40 40 38 40 42 42 42 41 39 38 35 33 33 28 26 22 22 18 15 12 6 4 8 12 4 4 5 17 17 9 9 3 1 8 7 6 6 17 28 19 21
25 26 26 29 36 39 42 44 45 43 41 42 43 40 40 37 35 31 28 26 25 24 19 14 15 11 5 1 11 11 8 5 6 18 13 16 9 4 3 6 4 8 10 26 16 15 8
25 27 32 40 42 44 46 47 48 52 50 46 42 40 36 34 33 29 25 25 25 23 16 13 13 11 10 5 14 15 8 11 12 12 14 10 15 8 3 4 7 16 20 12 7 4 5
29 34 39 42 43 48 51 53 54 50 50 48 46 41 36 32 27 28 28 18 19 14 10 5 4 7 3 3 16 16 11 9 10 8 8 6 13 6 1 4 13 10 9 11 8 12 4
33 36 39 41 45 50 55 55 53 49 47 46 45 42 32 26 22 26 19 15 18 18 12 6 3 4 7 2 3 17 18 8 8 2 0 5 7 4 5 8 11 14 6 3 18 18 4
35 37 40 43 47 51 55 55 53 50 47 46 44 38 31 19 21 27 14 8 8 12 19 9 3 2 8 3 6 5 23 19 4 2 4 4 4 7 8 10 7 8 6 8 11 8 12
34 38 41 44 45 50 52 50 49 46 46 46 45 36 26 17 21 33 20 2 5 3 15 6 8 8 8 16 7 5 7 27 8 6 4 9 8 6 9 8 5 1 5 13 9 10 7
34 37 41 42 44 48 50 52 51 46 45 45 44 36 21 17 18 24 34 27 30 15 15 17 10 15 16 16 8 14 14 13 6 5 4 11 8 12 4 5 2 2 7 14 16 6 4
35 39 42 44 47 49 52 56 55 50 46 45 44 35 18 13 16 15 22 30 19 18 4 11 12 17 8 9 3 8 8 9 7 9 5 10 8 7 4 2 4 2 8 7 16 12 10
36 40 43 46 48 50 53 56 56 51 44 42 40 33 27 9 8 23 14 22 10 13 7 21 15 14 11 5 5 11 5 3 5 9 14 8 7 8 4 8 11 7 12 14 12 7 7
38 41 44 46 48 51 53 55 55 48 41 37 34 33 32 27 17 28 29 17 4 7 11 21 13 11 11 10 13 21 5 10 10 9 11 12 2 4 3 11 12 14 5 13 15 9 2
38 41 43 46 49 52 54 56 56 51 40 36 28 28 33 28 29 30 29 9 1 10 7 13 11 14 13 25 15 28 7 2 2 8 2 12 1 8 14 7 12 10 7 12 9 6 7
38 41 43 46 49 53 55 56 57 54 44 33 28 17 30 36 44 37 24 5 10 13 9 15 9 12 9 15 17 20 13 21 9 10 7 12 8 8 9 8 1 5 11 7 8 2 13
38 39 43 46 49 53 56 56 56 55 48 33 23 13 24 35 40 33 11 9 19 5 7 7 9 8 11 17 10 17 6 8 25 13 4 4 13 7 12 7 9 10 15 11 11 5 12
36 39 43 46 48 51 55 57 56 54 50 35 23 12 20 34 38 26 7 13 2 6 8 12 4 11 8 10 7 15 11 7 11 19 8 10 11 14 12 6 8 3 2 11 6 2 4
35 39 42 44 47 50 53 56 56 54 50 40 25 7 25 29 26 17 13 8 5 10 11 8 8 8 14 14 12 12 4 11 4 12 1 3 12 10 13 18 8 11 10 4 6 6 11
35 39 41 43 45 48 52 55 57 53 48 38 19 5 26 29 14 19 9 4 6 16 14 9 2 6 6 7 5 7 7 4 5 11 10 5 9 12 10 11 5 11 9 4 6 10 9
38 42 43 44 44 45 49 51 55 55 48 36 12 7 30 25 14 9 5 5 6 12 17 10 7 7 4 2 4 6 9 3 21 22 9 6 5 9 18 29 22 19 17 12 7 13 9
39 41 43 44 41 42 46 49 50 50 49 43 12 13 24 20 7 6 7 7 6 13 11 8 5 6 7 2 4 7 8 10 18 12 7 7 5 10 17 9 4 6 4 7 3 2 28
37 37 39 38 38 38 42 46 47 44 38 31 12 7 16 24 17 9 5 4 6 12 7 8 4 14 10 6 5 9 5 8 27 25 28 14 8 15 22 15 19 34 21 18 7 6 10
36 37 38 36 35 35 39 41 44 42 32 22 14 7 7 6 12 7 3 6 4 8 8 13 7 10 7 7 7 12 7 10 22 22 11 12 13 12 31 37 34 40 58 49 29 36 13
30 30 30 30 29 32 36 40 40 38 30 15 9 7 6 5 6 5 8 6 5 7 3 5 2 8 3 10 16 35 28 13 16 9 5 8 17 23 35 45 46 40 50 57 50 54 34
26 26 25 25 26 28 33 38 42 38 28 10 9 8 4 7 4 4 0 4 5 10 7 7 5 9 15 25 32 37 44 44 44 24 33 11 10 13 46 44 39 34 48 54 49 52 39
24 24 24 23 23 25 28 32 36 37 27 10 6 5 5 4 2 4 2 10 5 5 7 21 37 7 13 44 61 53 59 55 56 57 45 15 18 21 28 24 35 42 37 46 52 54 47
22 23 22 21 21 23 25 29 32 34 26 6 1 3 4 2 5 13 2 3 17 27 16 22 15 18 43 39 7 12 8 8 10 14 15 34 16 10 13 18 36 55 45 38 40 56 60
20 21 20 20 19 20 22 24 26 29 27 16 7 5 3 2 7 8 2 11 3 6 11 9 34 36 10 4 3 5 7 6 8 4 3 9 21 15 7 9 13 23 29 47 35 39 22
20 21 18 18 17 17 19 20 21 23 24 20 6 13 6 9 14 16 12 8 4 6 8 16 18 10 7 3 5 6 7 6 7 7 9 13 6 11 16 12 19 22 39 48 10 6 21
21 19 16 16 15 16 17 19 20 19 19 21 10 8 12 12 36 46 45 41 28 16 5 13 18 3 4 2 4 4 5 5 6 8 11 6 9 5 7 11 18 18 48 9 16 67 44
20 16 14 14 13 14 16 18 19 18 15 17 12 8 16 27 31 47 56 53 38 37 27 14 11 8 7 4 4 3 6 7 11 7 7 8 10 5 9 10 16 50 58 67 59 64 49
Wind_Direction_500mb
18 20 10 5 8 6 5 0 356 350 347 346 342 340 338 337 332 326 321 315 306 301 295 282 273 280 318 160 137 172 130 55 56 146 146 133 103 75 69 294 345 163 278 312 315 320 312
20 12 10 9 12 8 4 358 354 352 348 344 339 337 335 339 334 329 323 318 306 297 295 281 257 262 279 148 169 173 198 159 134 146 115 69 58 65 91 305 349 317 261 295 302 335 309
14 14 10 14 10 6 2 357 353 350 351 350 346 341 340 339 337 342 339 326 310 300 300 286 245 247 261 213 186 173 176 163 156 150 121 55 21 13 335 335 329 333 338 345 336 43 11
16 13 13 11 7 4 1 355 350 352 351 353 353 350 347 343 350 355 339 351 353 333 317 287 258 241 223 207 199 188 179 160 160 154 137 66 11 349 306 340 7 38 49 339 333 353 78
18 13 11 9 6 4 360 355 353 355 355 358 355 352 354 352 7 354 354 16 25 37 44 74 155 178 112 292 216 214 213 173 182 189 20 6 8 39 22 70 12 5 254 248 316 7 50
15 13 9 10 5 4 1 357 354 356 360 0 359 357 358 17 18 359 359 20 4 23 22 53 52 80 63 32 13 187 207 196 207 19 51 13 50 61 36 66 231 264 295 282 235 308 26
13 11 10 8 4 4 1 357 356 358 2 4 5 4 359 25 27 10 0 308 1 3 26 346 315 324 355 6 69 67 185 191 191 94 91 29 50 214 233 176 152 10 301 280 285 267 289
10 9 11 7 4 4 1 1 2 3 5 7 8 10 8 20 16 27 29 72 33 341 326 16 352 296 309 334 1 48 157 159 129 127 56 19 282 227 166 137 175 25 318 300 289 257 167
9 9 10 7 4 3 2 4 3 4 6 8 10 20 23 27 24 17 28 37 15 347 292 332 43 41 21 51 29 40 150 138 121 123 137 159 222 68 134 344 304 229 235 250 248 310 277
8 8 9 6 3 3 4 4 4 3 6 8 11 19 23 341 13 3 38 356 303 315 68 345 5 34 7 2 22 3 252 123 43 189 160 236 289 264 184 224 145 306 217 242 274 15 270
6 8 8 4 2 2 4 5 5 4 4 6 9 18 26 43 39 18 354 346 297 302 75 322 359 5 14 34 338 3 357 193 168 168 117 252 229 90 91 233 160 227 249 252 259 219 344
4 4 3 2 1 1 3 4 4 5 4 5 11 27 29 36 20 2 350 335 347 47 60 343 3 352 27 16 13 350 25 162 19 156 150 239 248 179 204 214 173 261 323 320 46 105 276
358 359 359 359 360 0 1 3 2 1 3 2 8 30 24 17 5 356 355 122 46 74 325 345 341 355 80 359 3 11 31 51 22 14 352 330 258 244 187 261 132 140 63 320 324 344 234
353 353 354 356 358 358 358 360 1 358 0 359 2 1 10 5 1 358 24 55 65 357 351 330 358 13 66 11 1 340 46 40 24 27 65 349 326 14 338 215 230 191 160 167 235 238 286
348 351 350 351 354 356 356 357 358 356 356 359 353 2 11 359 355 5 35 52 102 357 296 333 356 60 28 358 39 0 30 83 41 24 52 21 274 320 299 285 120 255 186 212 182 253 349
344 345 347 349 350 352 354 354 356 356 354 354 356 19 10 356 358 21 70 118 90 12 331 7 54 40 20 359 32 27 12 9 31 24 347 336 299 249 303 355 294 179 182 285 1 221 251
340 343 344 345 347 350 352 353 353 356 355 354 358 28 2 354 11 52 96 112 82 5 31 40 56 75 51 14 331 325 302 73 343 339 349 289 187 288 354 199 192 356 334 29 164 161 216
336 338 340 342 343 346 350 354 354 354 359 1 10 34 0 0 44 42 64 17 26 353 17 16 84 80 112 66 292 254 254 228 27 38 1 333 274 272 234 280 284 260 238 206 182 265 233
331 333 335 338 341 345 350 353 357 357 359 6 12 348 13 13 81 24 358 25 75 12 21 24 85 54 17 147 323 241 259 314 9 36 4 348 299 320 309 303 55 226 264 168 284 31 239
321 325 329 334 339 345 349 351 357 358 359 5 9 14 22 55 64 98 37 2 8 17 77 18 59 70 42 336 216 275 270 312 336 320 297 265 232 203 254 253 331 295 274 293 116 300 281
317 324 330 336 339 344 348 352 355 357 360 8 26 51 25 353 16 51 65 358 7 12 18 13 81 86 94 287 323 256 250 305 296 278 272 165 257 227 261 273 269 263 278 283 270 257 250
314 319 325 333 338 343 347 350 358 360 358 20 35 25 22 46 5 34 18 21 33 352 284 301 168 349 213 218 221 273 284 263 248 270 198 206 255 269 278 273 267 263 260 264 257 259 249
312 318 324 328 336 343 348 350 353 2 6 34 46 44 7 15 42 55 324 34 24 6 294 195 10 306 282 275 286 272 267 254 253 262 264 218 237 250 266 274 282 265 250 254 258 255 241
306 311 319 325 329 337 343 347 350 357 5 5 43 53 33 312 40 200 302 319 256 270 250 284 300 234 272 312 304 288 269 255 250 250 234 238 243 242 256 278 257 258 257 246 247 244 239
300 305 311 317 325 332 338 345 347 351 4 13 341 91 59 284 279 301 326 11 317 300 264 275 297 298 302 308 304 326 315 318 263 231 190 204 249 241 256 246 280 288 262 238 226 242 237
293 302 303 310 320 327 334 341 345 346 357 9 224 221 26 352 257 230 317 290 269 304 326 264 315 330 314 223 269 261 266 274 287 252 178 304 263 221 216 255 257 267 320 308 206 239 185
287 295 298 304 311 320 327 333 339 340 350 0 333 218 230 288 278 261 226 203 285 295 299 285 333 315 7 336 274 241 263 289 297 295 303 290 321 242 246 264 272 289 313 315 151 224 312
281 283 288 295 303 315 324 329 333 335 347 358 352 235 241 262 276 267 258 259 255 237 221 323 335 262 332 354 275 312 297 306 302 240 264 295 321 284 237 226 266 345 321 323 304 293 310
274 271 280 287 295 307 316 324 328 326 331 338 355 319 261 260 261 279 276 266 250 237 256 261 244 313 291 256 242 311 299 290 253 270 168 259 201 256 257 253 268 287 284 289 320 301 288
Wind_Speed_850mb
25 27 26 28 32 37 40 40 38 40 42 42 42 41 39 38 35 33 33 28 26 22 22 18 15 12 6 4 8 12 4 4 5 17 17 9 9 3 1 8 7 6 6 17 28 19 21
25 26 26 29 36 39 42 44 45 43 41 42 43 40 40 37 35 31 28 26 25 24 19 14 15 11 5 1 11 11 8 5 6 18 13 16 9 4 3 6 4 8 10 26 16 15 8
25 27 32 40 42 44 46 47 48 52 50 46 42 40 36 34 33 29 25 25 25 23 16 13 13 11 10 5 14 15 8 11 12 12 14 10 15 8 3 4 7 16 20 12 7 4 5
29 34 39 42 43 48 51 53 54 50 50 48 46 41 36 32 27 28 28 18 19 14 10 5 4 7 3 3 16 16 11 9 10 8 8 6 13 6 1 4 13 10 9 11 8 12 4
33 36 39 41 45 50 55 55 53 49 47 46 45 42 32 26 22 26 19 15 18 18 12 6 3 4 7 2 3 17 18 8 8 2 0 5 7 4 5 8 11 14 6 3 18 18 4
35 37 40 43 47 51 55 55 53 50 47 46 44 38 31 19 21 27 14 8 8 12 19 9 3 2 8 3 6 5 23 19 4 2 4 4 4 7 8 10 7 8 6 8 11 8 12
34 38 41 44 45 50 52 50 49 46 46 46 45 36 26 17 21 33 20 2 5 3 15 6 8 8 8 16 7 5 7 27 8 6 4 9 8 6 9 8 5 1 5 13 9 10 7
34 37 41 42 44 48 50 52 51 46 45 45 44 36 21 17 18 24 34 27 30 15 15 17 10 15 16 16 8 14 14 13 6 5 4 11 8 12 4 5 2 2 7 14 16 6 4
35 39 42 44 47 49 52 56 55 50 46 45 44 35 18 13 16 15 22 30 19 18 4 11 12 17 8 9 3 8 8 9 7 9 5 10 8 7 4 2 4 2 8 7 16 12 10
36 40 43 46 48 50 53 56 56 51 44 42 40 33 27 9 8 23 14 22 10 13 7 21 15 14 11 5 5 11 5 3 5 9 14 8 7 8 4 8 11 7 12 14 12 7 7
38 41 44 46 48 51 53 55 55 48 41 37 34 33 32 27 17 28 29 17 4 7 11 21 13 11 11 10 13 21 5 10 10 9 11 12 2 4 3 11 12 14 5 13 15 9 2
38 41 43 46 49 52 54 56 56 51 40 36 28 28 33 28 29 30 29 9 1 10 7 13 11 14 13 25 15 28 7 2 2 8 2 12 1 8 14 7 12 10 7 12 9 6 7
38 41 43 46 49 53 55 56 57 54 44 33 28 17 30 36 44 37 24 5 10 13 9 15 9 12 9 15 17 20 13 21 9 10 7 12 8 8 9 8 1 5 11 7 8 2 13
38 39 43 46 49 53 56 56 56 55 48 33 23 13 24 35 40 33 11 9 19 5 7 7 9 8 11 17 10 17 6 8 25 13 4 4 13 7 12 7 9 10 15 11 11 5 12
36 39 43 46 48 51 55 57 56 54 50 35 23 12 20 34 38 26 7 13 2 6 8 12 4 11 8 10 7 15 11 7 11 19 8 10 11 14 12 6 8 3 2 11 6 2 4
35 39 42 44 47 50 53 56 56 54 50 40 25 7 25 29 26 17 13 8 5 10 11 8 8 8 14 14 12 12 4 11 4 12 1 3 12 10 13 18 8 11 10 4 6 6 11
35 39 41 43 45 48 52 55 57 53 48 38 19 5 26 29 14 19 9 4 6 16 14 9 2 6 6 7 5 7 7 4 5 11 10 5 9 12 10 11 5 11 9 4 6 10 9
38 42 43 44 44 45 49 51 55 55 48 36 12 7 30 25 14 9 5 5 6 12 17 10 7 7 4 2 4 6 9 3 21 22 9 6 5 9 18 29 22 19 17 12 7 13 9
39 41 43 44 41 42 46 49 50 50 49 43 12 13 24 20 7 6 7 7 6 13 11 8 5 6 7 2 4 7 8 10 18 12 7 7 5 10 17 9 4 6 4 7 3 2 28
37 37 39 38 38 38 42 46 47 44 38 31 12 7 16 24 17 9 5 4 6 12 7 8 4 14 10 6 5 9 5 8 27 25 28 14 8 15 22 15 19 34 21 18 7 6 10
36 37 38 36 35 35 39 41 44 42 32 22 14 7 7 6 12 7 3 6 4 8 8 13 7 10 7 7 7 12 7 10 22 22 11 12 13 12 31 37 34 40 58 49 29 36 13
30 30 30 30 29 32 36 40 40 38 30 15 9 7 6 5 6 5 8 6 5 7 3 5 2 8 3 10 16 35 28 13 16 9 5 8 17 23 35 45 46 40 50 57 50 54 34
26 26 25 25 26 28 33 38 42 38 28 10 9 8 4 7 4 4 0 4 5 10 7 7 5 9 15 25 32 37 44 44 44 24 33 11 10 13 46 44 39 34 48 54 49 52 39
24 24 24 23 23 25 28 32 36 37 27 10 6 5 5 4 2 4 2 10 5 5 7 21 37 7 13 44 61 53 59 55 56 57 45 15 18 21 28 24 35 42 37 46 52 54 47
22 23 22 21 21 23 25 29 32 34 26 6 1 3 4 2 5 13 2 3 17 27 16 22 15 18 43 39 7 12 8 8 10 14 15 34 16 10 13 18 36 55 45 38 40 56 60
20 21 20 20 19 20 22 24 26 29 27 16 7 5 3 2 7 8 2 11 3 6 11 9 34 36 10 4 3 5 7 6 8 4 3 9 21 15 7 9 13 23 29 47 35 39 22
20 21 18 18 17 17 19 20 21 23 24 20 6 13 6 9 14 16 12 8 4 6 8 16 18 10 7 3 5 6 7 6 7 7 9 13 6 11 16 12 19 22 39 48 10 6 21
21 19 16 16 15 16 17 19 20 19 19 21 10 8 12 12 36 46 45 41 28 16 5 13 18 3 4 2 4 4 5 5 6 8 11 6 9 5 7 11 18 18 48 9 16 67 44
20 16 14 14 13 14 16 18 19 18 15 17 12 8 16 27 31 47 56 53 38 37 27 14 11 8 7 4 4 3 6 7 11 7 7 8 10 5 9 10 16 50 58 67 59 64 49
Wind_Direction_850mb
18 20 10 5 8 6 5 0 356 350 347 346 342 340 338 337 332 326 321 315 306 301 295 282 273 280 318 160 137 172 130 55 56 146 146 133 103 75 69 294 345 163 278 312 315 320 312
20 12 10 9 12 8 4 358 354 352 348 344 339 337 335 339 334 329 323 318 306 297 295 281 257 262 279 148 169 173 198 159 134 146 115 69 58 65 91 305 349 317 261 295 302 335 309
14 14 10 14 10 6 2 357 353 350 351 350 346 341 340 339 337 342 339 326 310 300 300 286 245 247 261 213 186 173 176 163 156 150 121 55 21 13 335 335 329 333 338 345 336 43 11
16 13 13 11 7 4 1 355 350 352 351 353 353 350 347 343 350 355 339 351 353 333 317 287 258 241 223 207 199 188 179 160 160 154 137 66 11 349 306 340 7 38 49 339 333 353 78
18 13 11 9 6 4 360 355 353 355 355 358 355 352 354 352 7 354 354 16 25 37 44 74 155 178 112 292 216 214 213 173 182 189 20 6 8 39 22 70 12 5 254 248 316 7 50
15 13 9 10 5 4 1 357 354 356 360 0 359 357 358 17 18 359 359 20 4 23 22 53 52 80 63 32 13 187 207 196 207 19 51 13 50 61 36 66 231 264 295 282 235 308 26
13 11 10 8 4 4 1 357 356 358 2 4 5 4 359 25 27 10 0 308 1 3 26 346 315 324 355 6 69 67 185 191 191 94 91 29 50 214 233 176 152 10 301 280 285 267 289
10 9 11 7 4 4 1 1 2 3 5 7 8 10 8 20 16 27 29 72 33 341 326 16 352 296 309 334 1 48 157 159 129 127 56 19 282 227 166 137 175 25 318 300 289 257 167
9 9 10 7 4 3 2 4 3 4 6 8 10 20 23 27 24 17 28 37 15 347 292 332 43 41 21 51 29 40 150 138 121 123 137 159 222 68 134 344 304 229 235 250 248 310 277
8 8 9 6 3 3 4 4 4 3 6 8 11 19 23 341 13 3 38 356 303 315 68 345 5 34 7 2 22 3 252 123 43 189 160 236 289 264 184 224 145 306 217 242 274 15 270
6 8 8 4 2 2 4 5 5 4 4 6 9 18 26 43 39 18 354 346 297 302 75 322 359 5 14 34 338 3 357 193 168 168 117 252 229 90 91 233 160 227 249 252 259 219 344
4 4 3 2 1 1 3 4 4 5 4 5 11 27 29 36 20 2 350 335 347 47 60 343 3 352 27 16 13 350 25 162 19 156 150 239 248 179 204 214 173 261 323 320 46 105 276
358 359 359 359 360 0 1 3 2 1 3 2 8 30 24 17 5 356 355 122 46 74 325 345 341 355 80 359 3 11 31 51 22 14 352 330 258 244 187 261 132 140 63 320 324 344 234
353 353 354 356 358 358 358 360 1 358 0 359 2 1 10 5 1 358 24 55 65 357 351 330 358 13 66 11 1 340 46 40 24 27 65 349 326 14 338 215 230 191 160 167 235 238 286
348 351 350 351 354 356 356 357 358 356 356 359 353 2 11 359 355 5 35 52 102 357 296 333 356 60 28 358 39 0 30 83 41 24 52 21 274 320 299 285 120 255 186 212 182 253 349
344 345 347 349 350 352 354 354 356 356 354 354 356 19 10 356 358 21 70 118 90 12 331 7 54 40 20 359 32 27 12 9 31 24 347 336 299 249 303 355 294 179 182 285 1 221 251
340 343 344 345 347 350 352 353 353 356 355 354 358 28 2 354 11 52 96 112 82 5 31 40 56 75 51 14 331 325 302 73 343 339 349 289 187 288 354 199 192 356 334 29 164 161 216
336 338 340 342 343 346 350 354 354 354 359 1 10 34 0 0 44 42 64 17 26 353 17 16 84 80 112 66 292 254 254 228 27 38 1 333 274 272 234 280 284 260 238 206 182 265 233
331 333 335 338 341 345 350 353 357 357 359 6 12 348 13 13 81 24 358 25 75 12 21 24 85 54 17 147 323 241 259 314 9 36 4 348 299 320 309 303 55 226 264 168 284 31 239
321 325 329 334 339 345 349 351 357 358 359 5 9 14 22 55 64 98 37 2 8 17 77 18 59 70 42 336 216 275 270 312 336 320 297 265 232 203 254 253 331 295 274 293 116 300 281
317 324 330 336 339 344 348 352 355 357 360 8 26 51 25 353 16 51 65 358 7 12 18 13 81 86 94 287 323 256 250 305 296 278 272 165 257 227 261 273 269 263 278 283 270 257 250
314 319 325 333 338 343 347 350 358 360 358 20 35 25 22 46 5 34 18 21 33 352 284 301 168 349 213 218 221 273 284 263 248 270 198 206 255 269 278 273 267 263 260 264 257 259 249
312 318 324 328 336 343 348 350 353 2 6 34 46 44 7 15 42 55 324 34 24 6 294 195 10 306 282 275 286 272 267 254 253 262 264 218 237 250 266 274 282 265 250 254 258 255 241
306 311 319 325 329 337 343 347 350 357 5 5 43 53 33 312 40 200 302 319 256 270 250 284 300 234 272 312 304 288 269 255 250 250 234 238 243 242 256 278 257 258 257 246 247 244 239
300 305 311 317 325 332 338 345 347 351 4 13 341 91 59 284 279 301 326 11 317 300 264 275 297 298 302 308 304 326 315 318 263 231 190 204 249 241 256 246 280 288 262 238 226 242 237
293 302 303 310 320 327 334 341 345 346 357 9 224 221 26 352 257 230 317 290 269 304 326 264 315 330 314 223 269 261 266 274 287 252 178 304 263 221 216 255 257 267 320 308 206 239 185
287 295 298 304 311 320 327 333 339 340 350 0 333 218 230 288 278 261 226 203 285 295 299 285 333 315 7 336 274 241 263 289 297 295 303 290 321 242 246 264 272 289 313 315 151 224 312
281 283 288 295 303 315 324 329 333 335 347 358 352 235 241 262 276 267 258 259 255 237 221 323 335 262 332 354 275 312 297 306 302 240 264 295 321 284 237 226 266 345 321 323 304 293 310
274 271 280 287 295 307 316 324 328 326 331 338 355 319 261 260 261 279 276 266 250 237 256 261 244 313 291 256 242 311 299 290 253 270 168 259 201 256 257 253 268 287 284 289 320 301 288